[[{"header":{"parameterUnit":"m.s-1","parameterCategory":1,"la1":30.2991,"la2":30.254,"lo1":-89.0895,"lo2":-89.0444,"dy":0.0017,"dx":0.0017,"nx":28,"ny":28,"refTime":"2023-07-27T03:00:00:Z","depth":0,"parameterNumber":2,"parameterNumberName":"U-component_of_WINDS"},"data":[0,0,0,0,0,0,0,0,0,0,0,0,0,0,0,0,0,0,0,0,0,0,0,0,0,0,0,0,0,0,0,0,0,0,0,0,0,0,0,0,0,0,0,0,0,0,0,0,0,0,0,0,0,0,0,0,0,0,0.8646,0.8646,0,0.8668,0.8668,0.8668,0.8643,0.8642,0.8641,0.864,0.8663,0.8664,0.8665,0,0,0,0,0,0,0,0,0,0,0,0,0,0.8581,0.8582,0.8646,0.8646,0.8646,0.8668,0.8668,0.8668,0.8643,0.8642,0.8641,0.864,0.8662,0.8664,0.8666,0,0,0,0,0,0,0,0,0,0,0,0,0,0.8606,0.8582,0.8646,0.8636,0.8636,0.8668,0.8668,0.8668,0.8643,0.8642,0.864,0.8639,0.8661,0.8664,0.8666,0.8708,0,0,0.8673,0.8674,0,0,0,0,0,0,0,0,0.8605,0.8609,0.8637,0.8637,0.8636,0.8651,0.8653,0.8682,0.8644,0.864,0.864,0.8638,0.866,0.8662,0.8669,0.8709,0.871,0.8673,0.8674,0.8675,0.8676,0,0,0,0,0,0,0,0.8603,0.8608,0.8654,0.8638,0.8637,0.8631,0.8633,0.8658,0.8658,0.8641,0.8639,0.8642,0.8659,0.8667,0.867,0.871,0.8673,0.8675,0.8676,0.8677,0.8784,0.8785,0,0,0,0,0,0,0.8603,0.8606,0.8654,0.8655,0.8617,0.8633,0.8635,0.8648,0.8658,0.8658,0.8643,0.864,0.8664,0.8667,0.867,0.8719,0.8675,0.8677,0.8678,0.8782,0.8784,0.8786,0,0,0,0,0,0,0.8601,0.8607,0.8653,0.863,0.8636,0.8635,0.865,0.8649,0.8657,0.8659,0.8659,0.8651,0.8663,0.8667,0.8698,0.872,0.8678,0.868,0.8781,0.8783,0.8785,0.8818,0,0,0,0,0,0,0.86,0.8607,0.8623,0.8631,0.8637,0.8681,0.8651,0.865,0.8661,0.8658,0.8667,0.8667,0.8662,0.8695,0.8701,0.8722,0.8682,0.8779,0.8782,0.8784,0.8815,0.8821,0.8827,0,0,0,0,0,0.8597,0.8632,0.8624,0.863,0.8658,0.8682,0.8686,0.868,0.8663,0.8679,0.868,0.8667,0.8717,0.8699,0.8705,0.8727,0.8777,0.8781,0.8784,0.8813,0.882,0.8826,0,0,0,0,0,0,0.8628,0.8633,0.8624,0.8663,0.8672,0.8678,0.8699,0.8688,0.8702,0.8699,0.8691,0.8693,0.8726,0.8729,0.8709,0.8767,0.8744,0.8749,0.8764,0.8771,0.8777,0.8775,0.8684,0,0,0,0,0,0.8639,0.8659,0.8662,0.8696,0.8701,0.8699,0.871,0.8704,0.8713,0.8717,0.8721,0.873,0.8748,0.8759,0.8776,0.8815,0.8816,0.8834,0.8839,0.8844,0.8848,0.8868,0.8875,0.8797,0.8797,0.8797,0,0,0.8663,0.8668,0.8681,0.8702,0.8709,0.8729,0.8703,0.8726,0.874,0.8721,0.875,0.8753,0.8763,0.8798,0.8813,0.8802,0.887,0.8848,0.8852,0.8854,0.8872,0.8879,0.8886,0.8799,0.8799,0.8798,0,0,0.8715,0.8722,0.875,0.8756,0.8766,0.8764,0.8771,0.8778,0.8779,0.8808,0.8793,0.881,0.8841,0.8848,0.8856,0.891,0.8898,0.8915,0.8945,0.8964,0.897,0.8976,0.8994,0.9001,0.8919,0.8919,0.8919,0,0.8743,0.8773,0.8765,0.8789,0.8798,0.878,0.8808,0.8815,0.883,0.8836,0.8823,0.886,0.8866,0.8902,0.8914,0.8922,0.8928,0.8914,0.897,0.8975,0.898,0.8998,0.9004,0.8921,0.8921,0.8921,0.8921,0,0.8806,0.8827,0.8849,0.8863,0.8874,0.89,0.8895,0.8907,0.89,0.8899,0.8928,0.8934,0.8951,0.8959,0.8952,0.8993,0.8986,0.8971,0.8948,0.899,0.9006,0.9013,0.8924,0.8923,0.8923,0.8922,0,0,0.8881,0.8888,0.8896,0.8902,0.8911,0.8926,0.895,0.8966,0.8976,0.8987,0.9006,0.9032,0.9018,0.9027,0.9021,0.9038,0.9078,0.9021,0.9021,0.9031,0.9122,0.9133,0.9141,0.907,0.9071,0.9072,0.9121,0,0.8933,0.8974,0.8967,0.9007,0.9025,0.9008,0.9029,0.9036,0.9035,0.9051,0.905,0.9068,0.9049,0.9054,0.907,0.907,0.9096,0.9066,0.9088,0.9088,0.9085,0.9149,0.9161,0.9207,0.9128,0.9129,0.9129,0,0.9,0.9012,0.9054,0.9058,0.9065,0.9084,0.9097,0.9112,0.9119,0.9117,0.9126,0.9116,0.9139,0.9115,0.9146,0.9126,0.9134,0.9135,0.9137,0.9138,0.9111,0.9152,0.9221,0.9228,0.9139,0.9139,0.9138,0,0.9048,0.9075,0.9103,0.9108,0.9114,0.9127,0.9131,0.9136,0.9146,0.9157,0.9163,0.9176,0.9184,0.9195,0.9188,0.9172,0.922,0.9196,0.9219,0.9219,0.923,0.9229,0.9301,0.9236,0.9236,0.9236,0.9236,0,0.9107,0.9134,0.9125,0.9142,0.917,0.9161,0.9189,0.919,0.9195,0.9211,0.9197,0.9213,0.9204,0.9219,0.9214,0.924,0.9244,0.9242,0.9241,0.9244,0.9244,0.9249,0.9245,0.9237,0.9237,0.9237,0.9236,0,0.9167,0.9162,0.9191,0.9194,0.9195,0.9216,0.9217,0.9233,0.9231,0.9252,0.9256,0.9253,0.9269,0.9264,0.9282,0.9279,0.9311,0.9306,0.9309,0.9307,0.9331,0.9328,0.9408,0.9417,0.9346,0.9347,0.9348,0,0.9205,0.9224,0.9228,0.9238,0.9242,0.9258,0.9267,0.9258,0.9268,0.9277,0.9291,0.9307,0.9318,0.9346,0.9344,0.9358,0.9352,0.9379,0.9354,0.9356,0.9352,0.9351,0.9352,0.9384,0.9385,0.9386,0.9386,0,0.9272,0.9268,0.9282,0.9294,0.9305,0.9315,0.9323,0.9331,0.9323,0.9334,0.9351,0.936,0.9378,0.9393,0.9404,0.9407,0.9395,0.9394,0.94,0.9403,0.9403,0.9403,0.9322,0.9392,0.9392,0.9391,0.9391,0.9391,0.9322,0.9337,0.9342,0.9357,0.9362,0.937,0.9384,0.9383,0.9396,0.941,0.9403,0.9422,0.9427,0.9442,0.9446,0.946,0.945,0.9459,0.9461,0.9463,0.9466,0.9401,0.9462,0.9462,0.9462,0.9462,0.9462,0,0.9388,0.9389,0.9403,0.9414,0.9426,0.9413,0.9421,0.9431,0.9448,0.9453,0.9465,0.9483,0.9497,0.9496,0.9509,0.9521,0.9515,0.9524,0.9523,0.9524,0.9475,0.9468,0.9528,0.9528,0.9528,0.9528,0.9528,0.9528,0.9423,0.9449,0.9446,0.9473,0.9474,0.9492,0.9498,0.9504,0.9508,0.9529,0.954,0.954,0.9542,0.9555,0.9567,0.9566,0.9572,0.9582,0.958,0.9534,0.9527,0.9521,0.9515,0.9584,0.9584,0.9628,0.9628,0.9628]},{"header":{"parameterUnit":"m.s-1","parameterCategory":1,"la1":30.2991,"la2":30.254,"lo1":-89.0895,"lo2":-89.0444,"dy":0.0017,"dx":0.0017,"nx":28,"ny":28,"refTime":"2023-07-27T03:00:00:Z","depth":0,"parameterNumber":3,"parameterNumberName":"V-component_of_WINDS"},"data":[0,0,0,0,0,0,0,0,0,0,0,0,0,0,0,0,0,0,0,0,0,0,0,0,0,0,0,0,0,0,0,0,0,0,0,0,0,0,0,0,0,0,0,0,0,0,0,0,0,0,0,0,0,0,0,0,0,0,2.8653,2.8653,0,2.8639,2.8639,2.8639,2.856,2.8558,2.8556,2.8554,2.854,2.8542,2.8543,0,0,0,0,0,0,0,0,0,0,0,0,0,2.8608,2.861,2.8653,2.8653,2.8653,2.8639,2.8639,2.8639,2.856,2.8558,2.8555,2.8553,2.854,2.8541,2.8543,0,0,0,0,0,0,0,0,0,0,0,0,0,2.8615,2.861,2.8653,2.8611,2.8608,2.8639,2.8639,2.8639,2.856,2.8558,2.8555,2.8552,2.8539,2.8541,2.8543,2.8614,0,0,2.855,2.8551,0,0,0,0,0,0,0,0,2.8614,2.8616,2.8618,2.8614,2.861,2.8598,2.8618,2.863,2.8561,2.8578,2.8554,2.8551,2.8562,2.8562,2.8566,2.8613,2.8613,2.855,2.8551,2.8552,2.8553,0,0,0,0,0,0,0,2.8614,2.8617,2.8647,2.8618,2.8613,2.8593,2.8591,2.862,2.8586,2.8577,2.8571,2.857,2.8559,2.8564,2.8565,2.8612,2.855,2.8552,2.8553,2.8554,2.8714,2.8717,0,0,0,0,0,0,2.862,2.8617,2.8648,2.8647,2.8605,2.8596,2.8594,2.8605,2.8586,2.858,2.8573,2.8567,2.8562,2.8562,2.8564,2.8643,2.8552,2.8554,2.8555,2.8711,2.8714,2.8718,0,0,0,0,0,0,2.8619,2.8623,2.8648,2.863,2.8632,2.86,2.8613,2.8606,2.8611,2.8583,2.8576,2.8584,2.8559,2.8561,2.8601,2.8641,2.8555,2.8557,2.8707,2.8712,2.8716,2.8803,0,0,0,0,0,0,2.8618,2.8623,2.8651,2.8631,2.8633,2.8687,2.8616,2.8608,2.8615,2.8606,2.8591,2.8586,2.8557,2.8599,2.8603,2.8643,2.8559,2.8704,2.8709,2.8715,2.8797,2.881,2.8822,0,0,0,0,0,2.8617,2.8676,2.8652,2.8657,2.8666,2.8689,2.869,2.8656,2.8618,2.8644,2.8626,2.8587,2.8637,2.8603,2.8608,2.8649,2.8701,2.8708,2.8714,2.8791,2.8807,2.8821,0,0,0,0,0,0,2.8702,2.8673,2.8646,2.8702,2.8698,2.8676,2.8708,2.8675,2.8682,2.8674,2.8631,2.8628,2.8674,2.8666,2.8629,2.8714,2.8662,2.867,2.8718,2.8734,2.8746,2.8747,2.856,0,0,0,0,0,2.8727,2.8748,2.8722,2.8773,2.8773,2.8741,2.875,2.8723,2.8718,2.8716,2.8701,2.8698,2.8712,2.8723,2.8735,2.8795,2.879,2.8825,2.8838,2.8848,2.8855,2.8884,2.8899,2.874,2.874,2.8739,0,0,2.8779,2.8766,2.8782,2.879,2.8784,2.8806,2.874,2.8767,2.8783,2.872,2.8757,2.8746,2.8739,2.8789,2.881,2.8783,2.8898,2.8857,2.8865,2.8867,2.8893,2.8908,2.8921,2.8744,2.8743,2.8743,0,0,2.8885,2.8878,2.8918,2.8914,2.8906,2.8884,2.8894,2.8876,2.8866,2.8901,2.8854,2.8872,2.8899,2.8895,2.8897,2.8999,2.8962,2.9004,2.9069,2.9098,2.911,2.9121,2.9156,2.9169,2.9011,2.9011,2.9011,0,2.8951,2.8982,2.8944,2.8973,2.8976,2.892,2.896,2.8957,2.8954,2.8958,2.8927,2.8958,2.8949,2.8996,2.9021,2.9025,2.9034,2.9005,2.9111,2.9122,2.9132,2.9164,2.9177,2.9016,2.9016,2.9015,2.9015,0,2.9062,2.9085,2.9118,2.9115,2.9123,2.9158,2.9123,2.9136,2.9108,2.9089,2.9125,2.9113,2.912,2.9129,2.9103,2.9172,2.9155,2.9119,2.9065,2.9152,2.9182,2.9194,2.9023,2.9022,2.902,2.9019,0,0,2.9222,2.9195,2.9208,2.9205,2.9191,2.9207,2.9239,2.9245,2.9256,2.9255,2.9279,2.9302,2.9267,2.9269,2.9241,2.9267,2.9346,2.9227,2.9226,2.9248,2.9419,2.9445,2.9461,2.9322,2.9324,2.9326,2.9419,0,2.9322,2.9373,2.9338,2.9395,2.9414,2.936,2.9387,2.9381,2.9363,2.9377,2.9357,2.9373,2.9328,2.9328,2.9351,2.9332,2.9379,2.9324,2.9342,2.9344,2.9345,2.9476,2.9505,2.9593,2.943,2.9432,2.9434,0,2.9445,2.9448,2.9507,2.9486,2.9493,2.9518,2.952,2.9534,2.9525,2.951,2.9512,2.9477,2.9505,2.9452,2.9489,2.9453,2.9458,2.9449,2.9452,2.9451,2.9393,2.9478,2.9621,2.9634,2.9452,2.9451,2.9449,0,2.9553,2.9572,2.9609,2.9608,2.9586,2.9604,2.9596,2.9584,2.959,2.9591,2.9594,2.96,2.9602,2.9607,2.9574,2.9539,2.9615,2.956,2.9603,2.9604,2.9621,2.962,2.9765,2.9626,2.9626,2.9626,2.9626,0,2.9668,2.9705,2.9657,2.9679,2.9719,2.9678,2.9719,2.9704,2.9694,2.9712,2.9667,2.9684,2.9641,2.9654,2.9629,2.9662,2.9664,2.9653,2.9645,2.9656,2.9657,2.9658,2.9651,2.9629,2.9629,2.9628,2.9627,0,2.9795,2.9764,2.98,2.9776,2.977,2.98,2.9779,2.9798,2.9777,2.9801,2.9804,2.9771,2.9784,2.9752,2.9761,2.9744,2.9791,2.9775,2.9794,2.9788,2.9832,2.9828,2.9982,3.0,2.9851,2.9853,2.9854,0,2.9869,2.9896,2.9874,2.9882,2.9876,2.9891,2.9896,2.9856,2.9863,2.9854,2.9874,2.9883,2.9888,2.9911,2.9888,2.9893,2.9876,2.9929,2.9876,2.9886,2.9875,2.9873,2.9875,2.994,2.9942,2.9944,2.9945,0,3.0004,2.9986,2.9995,2.9998,3.0004,3.0005,3.0002,3.0012,2.9969,2.9979,2.9991,2.9995,3.0003,3.0012,3.0012,3.0003,2.9967,2.9962,2.9971,2.9982,2.9992,2.9985,2.9822,2.9958,2.9957,2.9956,2.9955,2.9955,3.0105,3.0126,3.0113,3.0123,3.0117,3.0114,3.0131,3.0111,3.012,3.0123,3.0099,3.0116,3.0105,3.0101,3.0096,3.0108,3.0083,3.0098,3.0102,3.0106,3.0112,2.9991,3.0108,3.0107,3.0107,3.0107,3.0106,0,3.0236,3.0224,3.0234,3.0231,3.0238,3.0203,3.0198,3.0206,3.0222,3.0214,3.0219,3.0232,3.024,3.0217,3.0222,3.0236,3.0219,3.0238,3.0236,3.0234,3.0135,3.0125,3.0251,3.0251,3.0251,3.0251,3.0251,3.0251,3.0305,3.0337,3.0318,3.0346,3.0334,3.035,3.0349,3.0347,3.034,3.0356,3.0362,3.0347,3.0333,3.0335,3.0341,3.0334,3.0337,3.0362,3.0349,3.0256,3.0242,3.0228,3.0219,3.0363,3.0363,3.0447,3.0448,3.0449]}]]